TimeEDT,TemperatureF,Dew PointF,Humidity,Sea Level PressureIn,VisibilityMPH,Wind Direction,Wind SpeedMPH,Gust SpeedMPH,PrecipitationIn,Events,Conditions,WindDirDegrees,DateUTC
12:15 AM,23.5,13.5,65,29.94,10.0,NNW,5.8,-,N/A,,Overcast,340,2013-03-16 04:15:00
12:34 AM,23.4,13.1,65,29.94,10.0,North,5.8,-,N/A,,Overcast,10,2013-03-16 04:34:00
12:55 AM,22.6,12.7,66,29.93,10.0,North,8.1,-,N/A,,Overcast,360,2013-03-16 04:55:00
1:14 AM,22.5,12.9,67,29.93,10.0,NNE,5.8,-,N/A,,Overcast,20,2013-03-16 05:14:00
1:55 AM,22.1,12.2,66,29.93,10.0,North,3.5,-,N/A,,Overcast,360,2013-03-16 05:55:00
2:34 AM,21.4,11.5,66,29.93,7.0,NNE,5.8,-,N/A,,Overcast,30,2013-03-16 06:34:00
2:55 AM,21.2,10.6,64,29.93,10.0,NNE,3.5,-,N/A,,Overcast,20,2013-03-16 06:55:00
3:14 AM,21.2,10.9,65,29.92,10.0,NNE,5.8,-,N/A,,Overcast,20,2013-03-16 07:14:00
3:34 AM,21.2,11.7,67,29.91,10.0,North,4.6,-,N/A,,Overcast,10,2013-03-16 07:34:00
3:55 AM,21.0,12.2,69,29.90,10.0,North,5.8,-,N/A,,Overcast,10,2013-03-16 07:55:00
4:14 AM,21.0,12.2,69,29.90,10.0,North,3.5,-,N/A,,Overcast,360,2013-03-16 08:14:00
4:35 AM,21.0,12.0,68,29.89,10.0,North,4.6,-,N/A,,Overcast,10,2013-03-16 08:35:00
4:55 AM,20.8,12.4,70,29.89,10.0,NNE,5.8,-,N/A,,Overcast,30,2013-03-16 08:55:00
5:14 AM,20.8,12.7,71,29.88,10.0,NNE,5.8,-,N/A,,Overcast,30,2013-03-16 09:14:00
5:35 AM,20.5,13.5,74,29.88,10.0,NNE,5.8,-,N/A,,Overcast,20,2013-03-16 09:35:00
5:55 AM,20.3,14.5,78,29.88,7.0,NNE,8.1,-,N/A,Snow,Light Snow,20,2013-03-16 09:55:00
6:14 AM,19.9,15.4,83,29.89,3.0,NNE,3.5,-,N/A,Snow,Light Snow,20,2013-03-16 10:14:00
6:35 AM,19.9,15.6,83,29.90,5.0,NNE,4.6,-,N/A,Snow,Light Snow,20,2013-03-16 10:35:00
6:54 AM,19.9,15.8,84,29.90,4.0,Calm,Calm,-,N/A,Snow,Light Snow,0,2013-03-16 10:54:00
7:14 AM,19.8,16.2,86,29.90,2.0,Calm,Calm,-,N/A,Snow,Light Snow,0,2013-03-16 11:14:00
7:35 AM,19.4,16.7,89,29.90,1.5,Calm,Calm,-,N/A,Snow,Light Snow,0,2013-03-16 11:35:00
7:54 AM,19.4,16.9,90,29.90,1.2,Calm,Calm,-,N/A,Snow,Light Snow,0,2013-03-16 11:54:00
8:15 AM,19.4,16.7,89,29.91,3.0,Calm,Calm,-,N/A,Snow,Light Snow,0,2013-03-16 12:15:00
8:35 AM,19.9,16.3,86,29.91,7.0,NE,8.1,-,N/A,Snow,Light Snow,40,2013-03-16 12:35:00
8:54 AM,20.1,16.2,85,29.92,5.0,NNE,4.6,-,N/A,Snow,Light Snow,30,2013-03-16 12:54:00
9:15 AM,19.9,14.2,78,29.93,10.0,NE,6.9,-,N/A,,Overcast,40,2013-03-16 13:15:00
9:35 AM,19.9,14.7,80,29.94,7.0,NNE,8.1,-,N/A,Snow,Light Snow,30,2013-03-16 13:35:00
9:54 AM,19.6,12.7,75,29.94,10.0,NE,8.1,-,N/A,,Overcast,40,2013-03-16 13:54:00
10:15 AM,19.9,13.1,75,29.94,10.0,NE,6.9,-,N/A,Snow,Light Snow,40,2013-03-16 14:15:00
10:35 AM,20.1,13.1,74,29.95,10.0,NNE,9.2,-,N/A,Snow,Light Snow,30,2013-03-16 14:35:00
10:54 AM,20.3,13.1,74,29.95,7.0,NE,10.4,-,N/A,Snow,Light Snow,40,2013-03-16 14:54:00
11:15 AM,20.8,13.3,73,29.95,5.0,NE,5.8,-,N/A,Snow,Light Snow,40,2013-03-16 15:15:00
11:35 AM,21.2,13.6,73,29.95,7.0,ENE,6.9,-,N/A,Snow,Light Snow,60,2013-03-16 15:35:00
11:55 AM,21.7,13.1,69,29.95,7.0,NNE,6.9,-,N/A,Snow,Light Snow,20,2013-03-16 15:55:00
12:15 PM,22.1,13.6,70,29.96,5.0,NNE,6.9,-,N/A,Snow,Light Snow,30,2013-03-16 16:15:00
12:34 PM,22.8,13.8,68,29.96,5.0,NNE,5.8,-,N/A,Snow,Light Snow,30,2013-03-16 16:34:00
12:55 PM,23.7,13.1,64,29.97,10.0,North,4.6,-,N/A,,Overcast,360,2013-03-16 16:55:00
1:15 PM,24.1,13.8,65,29.97,10.0,North,4.6,-,N/A,Snow,Light Snow,10,2013-03-16 17:15:00
1:34 PM,24.3,14.0,65,29.97,7.0,Calm,Calm,-,N/A,Snow,Light Snow,0,2013-03-16 17:34:00
1:55 PM,24.1,13.5,64,29.98,10.0,NNE,5.8,-,N/A,,Overcast,20,2013-03-16 17:55:00
2:15 PM,24.4,13.5,63,29.97,10.0,North,5.8,-,N/A,,Overcast,10,2013-03-16 18:15:00
2:34 PM,24.6,12.9,61,29.97,10.0,NW,4.6,-,N/A,,Overcast,310,2013-03-16 18:34:00
2:55 PM,26.2,14.2,60,29.96,10.0,North,5.8,-,N/A,,Overcast,10,2013-03-16 18:55:00
3:15 PM,25.0,13.3,61,29.96,10.0,West,3.5,-,N/A,,Overcast,260,2013-03-16 19:15:00
3:34 PM,25.5,13.3,60,29.95,10.0,NW,5.8,-,N/A,,Overcast,310,2013-03-16 19:34:00
3:55 PM,25.7,13.1,59,29.96,10.0,NW,6.9,-,N/A,,Overcast,310,2013-03-16 19:55:00
4:14 PM,27.1,13.5,56,29.95,10.0,NW,8.1,-,N/A,,Overcast,310,2013-03-16 20:14:00
4:35 PM,27.1,13.1,56,29.96,10.0,WNW,9.2,-,N/A,,Overcast,290,2013-03-16 20:35:00
4:55 PM,26.1,12.0,55,29.96,10.0,WNW,8.1,-,N/A,,Mostly Cloudy,290,2013-03-16 20:55:00
5:14 PM,25.5,10.6,53,29.96,10.0,WNW,8.1,-,N/A,,Scattered Clouds,300,2013-03-16 21:14:00
5:35 PM,24.4,9.1,52,29.97,10.0,WNW,6.9,-,N/A,,Clear,300,2013-03-16 21:35:00
5:55 PM,23.9,7.9,51,29.98,10.0,West,6.9,-,N/A,,Clear,280,2013-03-16 21:55:00
6:15 PM,23.9,9.1,53,29.99,10.0,WNW,6.9,-,N/A,,Scattered Clouds,300,2013-03-16 22:15:00
6:35 PM,23.5,9.1,54,29.99,10.0,West,10.4,-,N/A,,Scattered Clouds,280,2013-03-16 22:35:00
6:55 PM,23.0,8.6,54,29.99,10.0,NW,5.8,-,N/A,,Scattered Clouds,310,2013-03-16 22:55:00
7:15 PM,22.1,8.6,56,29.99,10.0,West,3.5,-,N/A,,Clear,280,2013-03-16 23:15:00
7:35 PM,21.7,9.3,59,29.99,10.0,Calm,Calm,-,N/A,,Clear,0,2013-03-16 23:35:00
7:54 PM,21.2,9.5,61,29.98,10.0,Calm,Calm,-,N/A,,Clear,0,2013-03-16 23:54:00
8:15 PM,18.3,8.1,64,29.98,10.0,Calm,Calm,-,N/A,,Clear,0,2013-03-17 00:15:00
8:35 PM,17.2,9.1,71,29.98,10.0,Calm,Calm,-,N/A,,Clear,0,2013-03-17 00:35:00
8:54 PM,17.2,10.4,75,29.98,10.0,Calm,Calm,-,N/A,,Clear,0,2013-03-17 00:54:00
9:15 PM,15.8,11.1,82,29.98,10.0,Calm,Calm,-,N/A,,Clear,0,2013-03-17 01:15:00
9:35 PM,13.8,9.7,84,29.99,10.0,Calm,Calm,-,N/A,,Clear,0,2013-03-17 01:35:00
9:55 PM,14.7,9.9,81,30.00,10.0,Calm,Calm,-,N/A,,Mostly Cloudy,0,2013-03-17 01:55:00
10:15 PM,16.9,11.7,80,30.00,10.0,SW,3.5,-,N/A,,Overcast,220,2013-03-17 02:15:00
10:35 PM,19.4,11.3,71,30.01,10.0,SW,3.5,-,N/A,,Overcast,220,2013-03-17 02:35:00
10:55 PM,19.8,11.3,70,30.02,10.0,Calm,Calm,-,N/A,,Overcast,0,2013-03-17 02:55:00
11:15 PM,20.1,12.0,71,30.02,10.0,South,3.5,-,N/A,,Overcast,190,2013-03-17 03:15:00
11:35 PM,21.0,12.9,71,30.02,10.0,Calm,Calm,-,N/A,,Overcast,0,2013-03-17 03:35:00
11:54 PM,21.7,13.1,69,30.01,10.0,South,4.6,-,N/A,,Overcast,190,2013-03-17 03:54:00